Date,TemperatureHighF,TemperatureAvgF,TemperatureLowF,DewpointHighF,DewpointAvgF,DewpointLowF,HumidityHigh,HumidityAvg,HumidityLow,PressureMaxIn,PressureMinIn,WindSpeedMaxMPH,WindSpeedAvgMPH,GustSpeedMaxMPH,PrecipitationSumIn
2013-9-1,72.0,65.0,58.0,52.0,45.0,39.0,75,49,33,29.76,29.65,5,0,0,0.00
2013-9-2,73.0,64.9,55.0,53.0,46.3,43.0,71,52,35,29.75,29.64,5,1,0,0.00
2013-9-3,73.0,66.1,60.0,52.0,47.9,45.0,66,53,40,29.72,29.61,2,0,0,0.00
2013-9-4,76.0,66.8,58.0,52.0,49.5,47.0,70,55,38,29.78,29.66,5,1,0,0.00
2013-9-5,76.0,66.3,57.0,51.0,48.2,45.0,78,54,33,29.74,29.67,6,1,0,0.00
2013-9-6,76.0,66.6,58.0,47.0,43.2,39.0,58,44,28,29.73,29.64,2,0,0,0.00
2013-9-7,73.0,61.9,57.0,54.0,47.1,44.0,86,60,36,29.75,29.61,0,0,0,0.04
2013-9-8,73.0,61.2,52.0,45.0,37.5,30.0,69,44,22,29.77,29.61,3,0,0,0.00
2013-9-9,70.0,59.4,51.0,52.0,43.3,38.0,88,58,32,29.65,29.56,2,0,0,0.01
2013-9-10,66.0,57.6,51.0,45.0,40.6,36.0,75,54,37,29.75,29.56,3,1,0,0.00
2013-9-11,68.0,57.9,49.0,36.0,32.1,26.0,57,39,27,29.82,29.73,3,0,0,0.00
2013-9-12,70.0,60.1,52.0,32.0,29.4,19.0,46,32,21,29.81,29.70,3,0,0,0.00
2013-9-13,74.0,62.9,53.0,33.0,25.7,17.0,40,25,17,29.73,29.55,1,0,0,0.00
2013-9-14,75.0,63.1,55.0,36.0,32.9,29.0,42,33,22,29.62,29.50,2,0,0,0.00
2013-9-15,75.0,65.2,55.0,37.0,33.4,29.0,43,31,22,29.63,29.53,5,1,0,0.00
2013-9-16,74.0,65.5,55.0,35.0,31.1,27.0,41,28,21,29.69,29.55,3,1,0,0.00
2013-9-17,68.0,63.0,58.0,38.0,27.0,14.0,48,27,12,29.55,29.49,6,3,0,0.00
2013-9-18,57.0,54.5,52.0,21.0,10.8,-1.0,25,18,10,29.62,29.54,0,0,0,0.00
2013-9-19,72.0,62.6,53.0,35.0,23.0,14.0,35,23,16,29.66,29.54,2,0,0,0.00
2013-9-20,67.0,58.5,50.0,32.0,25.5,20.0,40,29,18,29.67,29.60,7,2,0,0.00
2013-9-21,61.0,52.8,43.0,40.0,29.4,11.0,75,47,14,29.60,29.55,6,2,0,0.00
2013-9-22,55.0,46.1,38.0,35.0,24.3,9.0,85,47,24,29.80,29.55,6,1,0,0.00
2013-9-23,67.0,59.5,49.0,27.0,20.8,9.0,30,23,16,29.79,29.64,5,1,0,0.00
2013-9-24,67.0,56.9,48.0,31.0,24.2,19.0,39,29,18,29.85,29.63,2,1,0,0.00
2013-9-25,57.0,52.2,46.0,39.0,25.8,14.0,70,38,22,29.63,29.48,7,4,0,0.00
2013-9-26,47.0,38.6,35.0,34.0,24.2,7.0,88,61,20,29.85,29.45,6,0,0,0.00
2013-9-27,54.0,42.2,31.0,21.0,13.8,5.0,62,35,15,29.97,29.78,6,1,0,0.00
2013-9-28,63.0,52.5,38.0,15.0,10.2,-3.0,25,18,14,30.01,29.90,2,0,0,0.00
2013-9-29,68.0,53.2,43.0,16.0,11.5,4.0,25,19,9,30.01,29.85,1,0,0,0.00
2013-9-30,68.0,56.7,47.0,21.0,13.5,7.0,28,19,10,29.87,29.72,2,0,0,0.00